FW4827 Weather Reports


Display with metric or nautical units.
time (UTC)temp
F
wind
direction
speed
MPH
gust
MPH
rain 1hr
in
rain 24hr
in
rain mn
in
humidity
%
barometer
mb
20220705101451 49 177 1.0 3.0 0.00 0.10 0.10 91 1012.7
20220705100952 49 185 1.0 3.0 0.00 0.10 0.10 91 1012.8
20220705100451 49 164 0.0 2.0 0.00 0.10 0.10 91 1012.8
20220705095951 49 173 1.0 3.0 0.00 0.10 0.10 91 1012.8
20220705095451 49 169 1.0 3.0 0.00 0.10 0.10 91 1012.8
20220705094951 49 155 1.0 3.0 0.00 0.10 0.10 91 1012.8
20220705094452 49 170 0.0 3.0 0.00 0.10 0.10 91 1012.8
20220705093951 49 162 1.0 3.0 0.00 0.10 0.10 91 1012.7
20220705092951 49 172 2.0 4.0 0.00 0.10 0.10 91 1012.8
20220705092451 49 162 2.0 4.0 0.00 0.10 0.10 91 1012.8
20220705091951 49 162 2.0 4.0 0.00 0.10 0.10 91 1013.0
20220705091451 49 173 1.0 4.0 0.00 0.10 0.10 90 1013.2
20220705090951 50 180 1.0 4.0 0.00 0.10 0.10 90 1013.3
20220705090451 50 177 1.0 3.0 0.00 0.10 0.10 90 1013.3
20220705085952 50 145 0.0 2.0 0.00 0.10 0.10 90 1013.2
20220705085451 50 142 0.0 2.0 0.00 0.10 0.10 90 1013.3
20220705084952 50 160 0.0 2.0 0.00 0.10 0.10 90 1013.3
20220705084451 50 198 0.0 1.0 0.00 0.10 0.10 90 1013.7
20220705083952 50 191 0.0 1.0 0.00 0.10 0.10 90 1013.7
20220705082952 50 184 1.0 3.0 0.02 0.10 0.10 90 1013.8
20220705082451 50 191 1.0 4.0 0.02 0.10 0.10 90 1013.8
20220705081951 50 190 1.0 4.0 0.02 0.10 0.10 90 1013.8
20220705081451 50 176 1.0 3.0 0.04 0.10 0.10 90 1014.0
20220705080951 50 169 1.0 3.0 0.04 0.10 0.10 90 1014.0
20220705080452 50 150 0.0 2.0 0.04 0.10 0.10 90 1013.9
20220705075952 50 137 0.0 2.0 0.04 0.10 0.10 90 1013.8
20220705075451 50 0 0.0 0.0 0.04 0.10 0.10 89 1013.9
20220705074951 50 135 0.0 2.0 0.04 0.10 0.10 89 1014.2
20220705074451 50 139 1.0 3.0 0.04 0.10 0.10 89 1014.1
20220705073951 50 140 1.0 3.0 0.04 0.10 0.10 89 1014.1
20220705072951 50 135 0.0 2.0 0.02 0.08 0.08 89 1014.4
20220705072452 50 0 0.0 0.0 0.02 0.08 0.08 89 1014.7
20220705071951 50 0 0.0 0.0 0.02 0.08 0.08 89 1014.8
20220705071451 50 0 0.0 0.0 0.00 0.06 0.06 88 1014.7
20220705070951 50 180 0.0 2.0 0.00 0.06 0.06 88 1014.9
20220705070451 50 175 0.0 2.0 0.00 0.06 0.06 88 1015.1
20220705065951 50 173 0.0 2.0 0.02 0.06 0.06 88 1015.3
20220705065451 50 0 0.0 0.0 0.02 0.06 0.06 88 1015.2
20220705064951 50 0 0.0 0.0 0.02 0.06 0.06 88 1015.1
20220705064451 50 0 0.0 0.0 0.02 0.06 0.06 88 1015.3
20220705063951 50 0 0.0 0.0 0.02 0.06 0.06 88 1015.3
20220705062952 51 52 0.0 1.0 0.04 0.06 0.06 87 1015.4
20220705062451 51 76 0.0 2.0 0.04 0.06 0.06 87 1015.4
20220705061951 51 85 0.0 2.0 0.04 0.06 0.06 87 1015.3
20220705061451 51 0 0.0 0.0 0.04 0.06 0.06 86 1015.3
20220705060952 51 67 0.0 1.0 0.06 0.06 0.06 86 1015.7
20220705060451 51 67 0.0 1.0 0.06 0.06 0.06 86 1015.7
20220705055952 51 41 0.0 2.0 0.04 0.04 0.04 85 1015.9
20220705055451 51 41 0.0 2.0 0.04 0.04 0.04 85 1015.9
20220705054951 51 45 0.0 1.0 0.04 0.04 0.04 84 1016.2
20220705054451 52 42 0.0 1.0 0.04 0.04 0.04 84 1016.2
20220705053951 52 36 0.0 1.0 0.04 0.04 0.04 84 1016.3
20220705053452 52 22 0.0 1.0 0.02 0.02 0.02 83 1016.0
20220705052951 52 0 0.0 0.0 0.02 0.02 0.02 83 1016.2
20220705052451 52 0 0.0 0.0 0.02 0.02 0.02 83 1016.1
20220705051951 52 0 0.0 0.0 0.02 0.02 0.02 83 1016.0
20220705051451 52 357 0.0 1.0 0.02 0.02 0.02 83 1016.0
20220705050951 53 5 0.0 2.0 0.00 0.00 0.00 82 1015.9
20220705050451 53 351 0.0 2.0 0.00 0.00 0.00 82 1016.0
20220705045951 53 344 0.0 2.0 0.00 0.00 0.00 82 1016.1
20220705045451 53 25 0.0 2.0 0.00 0.00 0.00 81 1016.1
20220705044951 53 26 0.0 2.0 0.00 0.00 0.00 81 1016.4
20220705044451 54 352 0.0 1.0 0.00 0.00 0.00 80 1016.4
20220705043951 54 39 0.0 2.0 0.00 0.00 0.00 80 1016.6
20220705043452 54 39 1.0 2.0 0.00 0.00 0.00 80 1016.5
20220705042951 54 32 0.0 2.0 0.00 0.00 0.00 79 1016.7
20220705042451 54 360 0.0 1.0 0.00 0.00 0.00 79 1017.1
20220705041951 54 292 0.0 1.0 0.00 0.00 0.00 79 1017.3
20220705041451 54 278 0.0 2.0 0.00 0.00 0.00 79 1017.5
20220705040951 54 271 0.0 2.0 0.00 0.00 0.00 78 1017.5
20220705040451 54 278 1.0 2.0 0.00 0.00 0.00 78 1017.5
20220705035951 55 290 1.0 4.0 0.00 0.00 0.00 78 1017.5
20220705035451 55 291 1.0 4.0 0.00 0.00 0.00 78 1017.4
20220705034951 55 275 0.0 3.0 0.00 0.00 0.00 78 1017.3
20220705034451 55 272 1.0 2.0 0.00 0.00 0.00 78 1017.5
20220705033951 55 282 1.0 3.0 0.00 0.00 0.00 77 1017.6
20220705033451 55 293 1.0 4.0 0.00 0.00 0.00 77 1017.6
20220705032951 55 293 2.0 4.0 0.00 0.00 0.00 77 1017.8
20220705032451 55 295 2.0 4.0 0.00 0.00 0.00 77 1017.7
20220705031951 55 307 2.0 4.0 0.00 0.00 0.00 77 1017.7
20220705031451 55 313 2.0 5.0 0.00 0.00 0.00 77 1017.7
20220705030951 56 310 2.0 5.0 0.00 0.00 0.00 76 1017.9
20220705030451 56 305 2.0 5.0 0.00 0.00 0.00 76 1017.9
20220705025951 56 309 2.0 5.0 0.00 0.00 0.00 76 1018.0
20220705025451 56 305 2.0 4.0 0.00 0.00 0.00 76 1018.1
20220705024951 56 296 2.0 4.0 0.00 0.00 0.00 76 1018.1
20220705024451 56 308 2.0 4.0 0.00 0.00 0.00 76 1018.2
20220705023951 56 295 2.0 4.0 0.00 0.00 0.00 75 1018.4
20220705023451 56 284 2.0 4.0 0.00 0.00 0.00 75 1018.4
20220705022951 56 294 2.0 6.0 0.00 0.00 0.00 75 1018.5
20220705022451 56 301 3.0 6.0 0.00 0.00 0.00 75 1018.5
20220705021951 56 302 3.0 5.0 0.00 0.00 0.00 75 1018.6
20220705021451 56 306 3.0 7.0 0.00 0.00 0.00 75 1018.6
20220705020951 56 307 3.0 7.0 0.00 0.00 0.00 75 1018.5
20220705020451 56 312 2.0 6.0 0.00 0.00 0.00 75 1018.6
20220705015952 56 324 2.0 6.0 0.00 0.00 0.00 75 1018.9
20220705015451 56 338 1.0 4.0 0.00 0.00 0.00 75 1019.0
20220705014951 56 341 1.0 4.0 0.00 0.00 0.00 75 1019.2
20220705014451 55 7 0.0 2.0 0.00 0.00 0.00 75 1019.3
20220705013951 55 351 0.0 2.0 0.00 0.00 0.00 75 1019.5
20220705013451 55 325 0.0 2.0 0.00 0.00 0.00 75 1019.6
20220705012951 55 325 1.0 3.0 0.00 0.00 0.00 75 1019.9
20220705012451 55 326 1.0 4.0 0.00 0.00 0.00 75 1019.9
20220705011951 55 332 1.0 4.0 0.00 0.00 0.00 75 1020.2
20220705011451 54 339 1.0 3.0 0.00 0.00 0.00 75 1020.1
20220705010951 54 331 1.0 3.0 0.00 0.00 0.00 75 1020.4
20220705010451 54 328 1.0 4.0 0.00 0.00 0.00 75 1020.4
20220705005951 54 321 1.0 4.0 0.00 0.00 0.00 75 1020.5
20220705005451 54 318 1.0 4.0 0.00 0.00 0.00 75 1020.9
20220705004951 54 327 1.0 4.0 0.00 0.00 0.00 75 1021.2
20220705004451 54 341 1.0 4.0 0.00 0.00 0.00 75 1021.2
20220705003951 54 350 1.0 4.0 0.00 0.00 0.00 75 1021.3
20220705003451 54 340 1.0 3.0 0.00 0.00 0.00 75 1021.3
20220705002951 54 329 1.0 5.0 0.00 0.00 0.00 75 1021.4
20220705002451 54 334 1.0 5.0 0.00 0.00 0.00 75 1021.6
20220705001951 54 335 1.0 5.0 0.00 0.00 0.00 75 1021.9
20220705001451 54 339 1.0 5.0 0.00 0.00 0.00 75 1022.2
20220705000952 54 333 1.0 4.0 0.00 0.00 0.00 75 1022.4
20220705000451 54 325 1.0 4.0 0.00 0.00 0.00 75 1022.5
20220704235951 54 359 1.0 2.0 0.00 0.00 0.00 75 1022.7
20220704235451 54 12 1.0 2.0 0.00 0.00 0.00 75 1022.7
20220704234951 54 11 1.0 3.0 0.00 0.02 0.00 75 1022.6
20220704234451 54 10 1.0 3.0 0.00 0.02 0.00 75 1022.7
20220704233951 54 333 1.0 3.0 0.00 0.02 0.00 75 1023.1
20220704233451 54 319 1.0 3.0 0.00 0.02 0.00 75 1023.3
20220704232951 54 306 0.0 2.0 0.00 0.02 0.00 75 1023.4
20220704232451 54 297 0.0 2.0 0.00 0.02 0.00 75 1023.5
20220704231951 53 309 1.0 3.0 0.00 0.02 0.00 75 1023.5
20220704231451 53 308 1.0 3.0 0.00 0.02 0.00 75 1023.6
20220704230951 53 312 1.0 3.0 0.00 0.02 0.00 74 1023.7
20220704230451 53 318 2.0 5.0 0.00 0.02 0.00 74 1023.8
20220704225951 53 322 2.0 5.0 0.00 0.02 0.00 74 1023.8
20220704225451 53 337 2.0 4.0 0.00 0.02 0.00 74 1023.8
20220704224951 53 341 2.0 6.0 0.00 0.02 0.00 75 1023.5
20220704224451 53 334 2.0 6.0 0.00 0.02 0.00 75 1023.7
20220704223951 53 322 2.0 6.0 0.00 0.02 0.00 75 1023.7
20220704223451 53 321 2.0 6.0 0.00 0.02 0.00 76 1023.9
20220704222951 53 326 2.0 6.0 0.00 0.02 0.00 77 1023.8
20220704222451 53 330 1.0 6.0 0.00 0.02 0.00 77 1023.8
20220704221951 52 327 2.0 6.0 0.00 0.02 0.00 78 1023.7
20220704221451 52 327 2.0 6.0 0.00 0.02 0.00 79 1024.0
20220704220951 51 332 1.0 4.0 0.00 0.02 0.00 80 1024.1
20220704220451 51 340 2.0 4.0 0.00 0.02 0.00 82 1024.1
20220704215951 51 348 2.0 6.0 0.00 0.02 0.00 82 1024.0
20220704215451 50 352 1.0 6.0 0.00 0.02 0.00 84 1023.9
20220704214951 50 4 0.0 4.0 0.00 0.02 0.00 85 1023.8
20220704214451 49 25 0.0 4.0 0.00 0.02 0.00 86 1023.9
20220704213951 49 1 0.0 4.0 0.00 0.02 0.00 86 1024.2
20220704213451 49 328 0.0 3.0 0.00 0.02 0.00 87 1024.3
20220704212951 48 326 0.0 3.0 0.00 0.02 0.00 87 1024.2
20220704212451 48 331 0.0 3.0 0.00 0.02 0.00 87 1024.4
20220704211951 47 337 0.0 1.0 0.00 0.02 0.00 87 1024.3
20220704211451 47 0 0.0 0.0 0.00 0.02 0.00 87 1024.2
20220704210951 46 0 0.0 0.0 0.00 0.02 0.00 87 1024.4
20220704210451 46 0 0.0 0.0 0.00 0.02 0.00 88 1024.2
20220704205951 46 31 0.0 2.0 0.00 0.02 0.00 88 1024.3
20220704205451 46 31 0.0 2.0 0.00 0.02 0.00 88 1024.4
20220704204951 46 0 0.0 0.0 0.00 0.02 0.00 88 1024.6
20220704204451 46 0 0.0 0.0 0.00 0.02 0.00 88 1024.4
20220704203951 45 35 0.0 4.0 0.00 0.02 0.00 88 1024.7
20220704203451 45 31 0.0 4.0 0.00 0.02 0.00 88 1024.7
20220704202951 45 35 1.0 2.0 0.00 0.02 0.00 88 1024.6
20220704202451 45 38 1.0 2.0 0.00 0.02 0.00 88 1024.4
20220704201951 44 33 1.0 2.0 0.00 0.02 0.00 88 1024.4
20220704201451 44 30 1.0 2.0 0.00 0.02 0.00 88 1024.4
20220704200951 44 38 2.0 4.0 0.00 0.02 0.00 88 1024.6
20220704200451 44 40 2.0 4.0 0.00 0.02 0.00 88 1024.5
20220704195951 44 35 2.0 3.0 0.00 0.02 0.00 88 1024.4
20220704195451 44 29 1.0 3.0 0.00 0.02 0.00 88 1024.4
20220704194951 45 25 1.0 3.0 0.00 0.02 0.00 88 1024.4
20220704194451 45 29 1.0 3.0 0.00 0.02 0.00 88 1024.4
20220704193951 45 34 1.0 3.0 0.00 0.02 0.00 88 1024.5
20220704193451 45 31 2.0 3.0 0.00 0.02 0.00 88 1024.6
20220704192951 45 31 1.0 3.0 0.00 0.02 0.00 88 1024.7
20220704192451 45 32 1.0 3.0 0.00 0.02 0.00 88 1024.8
20220704191951 45 36 2.0 3.0 0.00 0.02 0.00 88 1024.9
20220704191451 45 34 2.0 3.0 0.00 0.02 0.00 88 1024.9
20220704190951 45 29 1.0 3.0 0.00 0.02 0.00 88 1024.8
20220704190451 45 37 0.0 2.0 0.00 0.02 0.00 88 1024.8
20220704185951 45 22 0.0 2.0 0.00 0.02 0.00 89 1025.0
20220704185451 45 3 0.0 2.0 0.00 0.02 0.00 89 1025.2
20220704184951 45 10 0.0 2.0 0.00 0.02 0.00 89 1025.0
20220704184451 45 27 1.0 4.0 0.00 0.02 0.00 89 1024.9
20220704183951 45 29 2.0 4.0 0.00 0.02 0.00 89 1024.8
20220704183451 45 26 2.0 4.0 0.00 0.02 0.00 89 1024.7
20220704182951 44 23 1.0 4.0 0.00 0.02 0.00 89 1024.9
20220704182451 44 20 0.0 3.0 0.00 0.02 0.00 89 1025.2
20220704181951 44 22 0.0 2.0 0.00 0.02 0.00 89 1025.4
20220704181451 44 22 1.0 2.0 0.00 0.02 0.00 89 1025.4
20220704180951 44 22 0.0 2.0 0.00 0.02 0.00 89 1025.1
20220704180451 44 0 0.0 0.0 0.00 0.02 0.00 89 1025.2
20220704175951 44 22 0.0 1.0 0.00 0.02 0.00 89 1025.1
20220704175451 44 22 0.0 2.0 0.00 0.02 0.00 89 1025.1
20220704174951 45 23 0.0 2.0 0.00 0.02 0.00 89 1025.2
20220704174451 45 23 0.0 2.0 0.00 0.02 0.00 89 1025.1
20220704173951 45 0 0.0 0.0 0.00 0.02 0.00 89 1025.3
20220704173451 46 27 0.0 4.0 0.00 0.02 0.00 89 1025.4
20220704172951 46 26 1.0 4.0 0.00 0.02 0.00 89 1025.5
20220704172451 46 26 0.0 3.0 0.00 0.02 0.00 90 1025.5
20220704171951 47 31 0.0 2.0 0.00 0.02 0.00 90 1025.6
20220704171451 47 16 0.0 2.0 0.00 0.02 0.00 90 1025.7
20220704170951 46 349 0.0 2.0 0.00 0.02 0.00 91 1025.5
20220704170451 46 347 1.0 3.0 0.00 0.02 0.00 91 1025.7
20220704165951 46 339 1.0 4.0 0.00 0.02 0.00 91 1025.6
20220704165451 45 335 1.0 4.0 0.00 0.02 0.00 91 1025.7
20220704164951 44 342 1.0 4.0 0.00 0.02 0.00 91 1025.6
20220704164451 44 345 1.0 4.0 0.00 0.02 0.00 91 1025.6
20220704163951 43 328 0.0 2.0 0.00 0.02 0.00 91 1025.7
20220704163451 43 333 0.0 1.0 0.00 0.02 0.00 91 1025.6
20220704162951 42 343 0.0 1.0 0.00 0.02 0.00 91 1025.5
20220704162451 42 0 0.0 0.0 0.00 0.02 0.00 91 1025.6
20220704161951 42 38 0.0 2.0 0.00 0.02 0.00 91 1025.6
20220704161451 42 40 0.0 2.0 0.00 0.02 0.00 91 1025.8
20220704160951 42 42 0.0 2.0 0.00 0.02 0.00 91 1025.7
20220704160451 42 0 0.0 0.0 0.00 0.02 0.00 91 1025.8
20220704155951 42 0 0.0 0.0 0.00 0.02 0.00 91 1025.8
20220704155451 42 0 0.0 0.0 0.00 0.02 0.00 91 1025.8
20220704154951 42 0 0.0 0.0 0.00 0.02 0.00 91 1025.8
20220704154451 42 38 0.0 2.0 0.00 0.02 0.00 91 1025.7
20220704153951 42 37 0.0 2.0 0.00 0.02 0.00 91 1025.8
20220704153451 42 35 0.0 1.0 0.00 0.02 0.00 91 1025.8
20220704152951 42 0 0.0 0.0 0.00 0.02 0.00 91 1026.1
20220704152451 42 0 0.0 0.0 0.00 0.02 0.00 91 1026.2
20220704151951 42 0 0.0 0.0 0.00 0.02 0.00 91 1026.5
20220704151451 42 22 0.0 1.0 0.00 0.02 0.00 91 1026.4
20220704150951 42 33 0.0 1.0 0.00 0.02 0.00 91 1026.6
20220704150451 42 28 0.0 2.0 0.00 0.02 0.00 91 1026.6
20220704145951 42 24 0.0 2.0 0.00 0.02 0.00 91 1026.7
20220704145451 42 22 0.0 1.0 0.00 0.02 0.00 91 1026.5
20220704144951 42 0 0.0 0.0 0.00 0.02 0.00 91 1026.7
20220704144451 42 0 0.0 0.0 0.00 0.02 0.00 91 1026.7
20220704143951 42 26 0.0 2.0 0.00 0.02 0.00 91 1027.1
20220704143451 42 27 0.0 3.0 0.00 0.02 0.00 91 1027.1
20220704142951 42 27 0.0 3.0 0.00 0.02 0.00 91 1027.1
20220704142451 42 22 0.0 1.0 0.00 0.02 0.00 91 1027.1
20220704141951 42 22 0.0 2.0 0.00 0.02 0.00 91 1027.0
20220704141451 42 26 0.0 2.0 0.00 0.02 0.00 91 1026.9
20220704140951 42 33 1.0 3.0 0.00 0.02 0.00 91 1027.0
20220704140451 42 30 2.0 4.0 0.00 0.02 0.00 91 1026.9
20220704135951 42 26 1.0 4.0 0.00 0.02 0.00 91 1027.1
20220704135451 42 23 1.0 4.0 0.00 0.02 0.00 91 1027.1
20220704134951 42 25 1.0 4.0 0.00 0.02 0.00 91 1027.1
20220704134451 42 24 1.0 4.0 0.00 0.02 0.00 91 1027.0
20220704133951 42 25 1.0 3.0 0.00 0.02 0.00 91 1027.2
20220704133451 42 25 1.0 4.0 0.00 0.02 0.00 91 1027.2
20220704132951 42 20 0.0 4.0 0.00 0.02 0.00 90 1027.1
20220704132451 42 17 0.0 2.0 0.00 0.02 0.00 90 1027.3
20220704131951 42 23 1.0 3.0 0.00 0.02 0.00 90 1027.5
20220704131451 42 29 2.0 4.0 0.00 0.02 0.00 90 1027.5
20220704130951 42 32 1.0 4.0 0.00 0.02 0.00 90 1027.6
20220704130451 42 32 0.0 2.0 0.00 0.02 0.00 90 1027.5
20220704125951 42 28 1.0 2.0 0.00 0.02 0.00 90 1027.5
20220704125451 42 27 1.0 3.0 0.00 0.02 0.00 90 1027.5
20220704124951 42 31 1.0 3.0 0.00 0.02 0.00 90 1027.7
20220704124451 42 32 0.0 2.0 0.00 0.02 0.00 90 1027.7
20220704123951 42 27 0.0 3.0 0.00 0.02 0.00 90 1027.8
20220704123451 42 25 1.0 3.0 0.00 0.02 0.00 90 1027.6
20220704122951 42 25 1.0 2.0 0.00 0.02 0.00 90 1027.6
20220704122451 42 22 0.0 2.0 0.00 0.02 0.00 90 1027.7
20220704121951 42 0 0.0 0.0 0.00 0.02 0.00 90 1027.7
20220704121451 42 0 0.0 0.0 0.00 0.02 0.00 90 1027.5
20220704120951 42 0 0.0 0.0 0.00 0.02 0.00 90 1027.6
20220704120451 42 0 0.0 0.0 0.00 0.02 0.00 90 1027.5
20220704115951 42 40 0.0 1.0 0.00 0.02 0.00 90 1027.8
20220704115451 42 41 0.0 2.0 0.00 0.02 0.02 90 1027.7
20220704114951 42 41 0.0 2.0 0.00 0.02 0.02 90 1027.7
20220704114451 42 0 0.0 0.0 0.00 0.02 0.02 89 1027.7
20220704113951 42 22 0.0 2.0 0.00 0.02 0.02 89 1027.9
20220704113451 42 22 0.0 2.0 0.00 0.02 0.02 89 1027.8
20220704112951 42 22 0.0 2.0 0.00 0.02 0.02 89 1027.8
20220704112451 42 0 0.0 0.0 0.00 0.02 0.02 89 1027.8
20220704111951 42 0 0.0 0.0 0.00 0.02 0.02 89 1027.8
20220704111451 42 0 0.0 0.0 0.00 0.02 0.02 89 1027.7
20220704110951 42 22 0.0 4.0 0.00 0.02 0.02 89 1027.7
20220704110451 42 22 0.0 4.0 0.00 0.02 0.02 89 1027.6
20220704105951 42 0 0.0 0.0 0.00 0.02 0.02 89 1027.5
20220704105451 42 0 0.0 0.0 0.00 0.02 0.02 89 1027.4
20220704104951 42 0 0.0 0.0 0.00 0.02 0.02 89 1027.5
20220704104451 42 22 0.0 2.0 0.00 0.02 0.02 89 1027.3
20220704103951 42 22 0.0 2.0 0.00 0.02 0.02 89 1027.3
20220704102951 42 22 0.0 2.0 0.00 0.02 0.02 89 1027.2
20220704102451 42 23 0.0 2.0 0.00 0.02 0.02 89 1027.1
20220704101951 42 23 0.0 2.0 0.00 0.02 0.02 89 1026.9